Meteo Giornale » Osservazioni meteo Stati Uniti (USA) » New York City Central Park

ore: 00:51 - Osservazioni Meteo New York City Central Park
Lat. 40° 47' N Lon. 73° 58' W Alt. 47 metri s.l.m.

poco_nuvoloso America/New_York

25 °C

Poco Nuvoloso

Temp. 24 Ore

23 °C

29 °C

Nord

0 Km/h

Dew point 18 °C

Umidità 65 %

Visibilità  10 Km

Il sole sorge alle ore 06:10

Il sole tramonta alle ore 19:47

Data e Ora Cielo e Fenomeni T °C DP °C Um. % Pres. hPa Vis. km Vento km/h
Oggi h: 00:51 poco_nuvoloso Poco Nuvoloso 25 18 65 1013 10 N 0
Ieri h: 23:51 sereno Sereno 27 18 57 1012 10 N 7.4
Ieri h: 22:51 sereno Sereno 26 18 61 1013 10 N 5.5
Ieri h: 21:51 sereno Sereno 27 18 57 1012 10 N 5.5
Ieri h: 20:51 sereno Sereno 27 17 54 1012 10 N 7.4
Ieri h: 19:51 sereno Sereno 27 17 54 1011 10 N 5.5
Ieri h: 18:51 sereno Sereno 27 18 57 1011 10 N 0
Ieri h: 17:51 sereno Sereno 28 18 54 1010 10 N 0
Ieri h: 16:51 poco_nuvoloso Poco Nuvoloso 29 18 51 1010 10 N 7.4
Ieri h: 15:51 nuvoloso Nuvoloso 29 18 51 1011 10 N 5.5
Ieri h: 14:51 poco_nuvoloso Poco Nuvoloso 29 17 48 1011 10 N 7.4
Ieri h: 13:51 molto_nuvoloso Molto Nuvoloso 29 18 51 1011 10 N 7.4
Ieri h: 12:51 molto_nuvoloso Molto Nuvoloso 28 18 54 1012 10 N 5.5
Ieri h: 11:51 sereno Sereno 28 18 54 1012 10 N 0
Ieri h: 10:51 sereno Sereno 28 18 54 1012 10 N/NE 9.3
Ieri h: 09:51 sereno Sereno 26 19 65 1012 10 N 0
Ieri h: 08:51 sereno Sereno 25 21 78 1011 10 N 0
Ieri h: 07:51 sereno Sereno 24 22 88 1011 14 N 5.5
Ieri h: 06:51 foschia Foschia 23 22 94 1010 8 N 0
Ieri h: 05:51 foschia Foschia 23 22 94 1010 10 N 0
Ieri h: 05:12 foschia Foschia 23 22 94 1010 10 O 7.4
Ieri h: 04:51 molto_nuvoloso Molto Nuvoloso 23 22 94 1009 13 O/SO 9.3
Ieri h: 04:44 coperto Coperto 23 22 94 1009 13 N 0
Ieri h: 03:51 coperto Coperto 23 22 94 1009 14 N 0
Ieri h: 03:08 molto_nuvoloso Molto Nuvoloso 23 22 94 1009 10 N 0
Ieri h: 02:51 sereno Sereno 23 22 94 1009 10 O 9.3
Ieri h: 02:15 nuvoloso Nuvoloso 23 22 94 1009 10 O 9.3
Ieri h: 01:51 coperto Coperto 23 22 94 1009 10 O/NO 9.3
Ieri h: 01:48 coperto Coperto 23 22 94 1009 10 O/NO 9.3
Ieri h: 01:38 molto_nuvoloso Molto Nuvoloso 23 22 94 1009 10 N 5.5